Flag for Canada Weather past 2 weeks in Cape Dorset, Nunavut Territory, Canada

Now
16 °F

Clear.


Feels Like: 1 °F
Forecast: 17 / 26 °F
Wind: 14 mph from West

Location: Cape Dorset


UV Index: 0 (Low)

Visibility: 9 mi


Pressure: 29.98 "Hg

Humidity: 86%

Dew point: 12 °F

Location of Cape DorsetLocation

Historic Weather in Cape Dorset

°F

Cape Dorset temperature yesterday

Maximum temperature yesterday: 16 °F (at 5:00 PM)
Minimum temperature yesterday: 0 °F (at 12:00 AM)
Average temperature yesterday: 7 °F

Past Weeks' High & Low Weather Summary

 TemperatureHumidityPressure
High19 °F (Apr 19, 2:00 PM)92% (Apr 6, 12:00 AM)30.25 "Hg (Apr 6, 12:00 AM)
Low-8 °F (Apr 13, 3:00 AM)61% (Apr 16, 3:00 PM)29.11 "Hg (Apr 10, 6:00 PM)
Average3 °F79%29.73 "Hg
* Reported Apr 4 8:00 PM — Apr 19 8:00 PM, Cape Dorset, Weather by CustomWeather, © 2014

Note: Actual official high and low records may vary slightly from our data, if they occured in-between our weather recording intervals... More about our weather records

Advertising

Historic Weather Conditions — Data for Previous 24 hours

 ConditionsComfort  
Time TempWeatherWind HumidityBarometerVisibility
8:00 PM
Apr 19
18 °FClear.9 mph79%29.98 "Hg9 mi
7:00 PM18 °FLight snow. Sunny.15 mph86%29.97 "Hg9 mi
6:02 PM19 °FSunny.9 mph79%29.96 "Hg9 mi
5:00 PM19 °FPartly sunny.18 mph79%29.94 "Hg9 mi
4:00 PM18 °FScattered clouds.17 mph86%29.93 "Hg9 mi
3:00 PM19 °FOvercast.16 mph79%29.92 "Hg9 mi
2:00 PM19 °FSunny.16 mph79%29.92 "Hg9 mi
1:00 PM16 °FPartly sunny.13 mph86%29.92 "Hg9 mi
12:00 PM16 °FPartly sunny.13 mph79%29.92 "Hg9 mi
11:49 AM14 °FSunny.15 mph85%29.92 "Hg9 mi
11:00 AM14 °FLight snow. Sunny.17 mph85%29.93 "Hg9 mi
10:50 AM12 °FLight snow. Sunny.15 mph92%29.93 "Hg9 mi
10:00 AM12 °FLight snow. Sunny.14 mph85%29.93 "Hg9 mi
9:00 AM10 °FLight snow. Partly sunny.8 mph85%29.93 "Hg9 mi
8:00 AM9 °FSunny.No wind85%29.93 "Hg9 mi
7:00 AM7 °FSunny.No wind92%29.93 "Hg9 mi
6:00 AM9 °FLight snow. Sunny.3 mph85%29.93 "Hg9 mi
5:02 AM9 °FLight snow. Scattered clouds.10 mph85%29.93 "Hg9 mi
4:51 AM9 °FLight snow. Partly sunny.9 mph85%29.93 "Hg9 mi
4:00 AM9 °FLight snow. Clear.10 mph85%29.93 "Hg9 mi
3:00 AM10 °FLight snow. Clear.12 mph85%29.94 "Hg9 mi
2:00 AM9 °FLight snow. Passing clouds.13 mph92%29.94 "Hg9 mi
1:00 AM9 °FClear.26 mph85%29.92 "Hg9 mi
12:00 AM10 °FClear.20 mph79%29.94 "Hg9 mi
11:00 PM
Apr 18
10 °FClear.16 mph85%29.95 "Hg9 mi
10:00 PM12 °FHigh level clouds.14 mph85%29.95 "Hg9 mi
9:00 PM14 °FPassing clouds.18 mph73%29.96 "Hg9 mi
Weather by CustomWeather, © 2014

See weather overview